Regional Weather Roundup
Issued by NWS

Home | Current Version | Previous Version | Graphics & Text | Print | Product List | Glossary On
Versions: 1 2 3 4 5 6 7 8 9 10 11 12 13 14 15 16 17 18 19 20 21 22 23 24 25 26 27 28 29 30 31 32 33 34 35 36 37 38 39 40 41 42 43 44 45 46 47 48 49 50
000
ASUS43 KDTX 250110
RWRMI
MICHIGAN HOURLY REGIONAL WEATHER ROUNDUP
NATIONAL WEATHER SERVICE DETROIT/PONTIAC MI
900 PM EDT THU JUL 24 2014

NOTE: "FAIR" INDICATES FEW OR NO CLOUDS BELOW 12,000 FEET WITH NO
SIGNIFICANT WEATHER AND/OR OBSTRUCTION TO VISIBILITY.

MIZ047>049-052>055-059>063-066>070-074>076-081>083-250200-
SOUTHEAST LOWER MICHIGAN

CITY           SKY/WX    TMP DP  RH WIND       PRES   REMARKS
ADRIAN         CLEAR     67  49  52 N3        30.08R
ALMA           CLEAR     65  55  69 CALM      30.06F
ANN ARBOR      MOCLDY    69  47  45 NW8       30.07R
BAD AXE        CLEAR     64  50  61 CALM      30.07F
DETROIT CITY   MOCLDY    70  49  47 E3        30.07R
DETROIT        MOCLDY    71  49  45 SE5       30.06R
FLINT          CLEAR     69  47  45 N6        30.08S
GROSSE ILE     CLOUDY    70  52  52 CALM      30.05R
HILLSDALE      PTCLDY    66  54  66 CALM      30.09S
HOWELL         PTCLDY    66  51  59 CALM      30.08F

CITY           SKY/WX    TMP DP  RH WIND       PRES   REMARKS
JACKSON        MOCLDY    68  53  58 CALM      30.08S
LAMBERTVILLE   PTCLDY    66  54  63 CALM      30.07S
LANSING        CLEAR     68  51  54 NW3       30.08F
LAPEER         NOT AVBL
MASON          MOCLDY    65  55  68 CALM      30.08S
MONROE         MOCLDY    68  52  56 S3        30.05S
MT. CLEMENS    CLEAR     65  51  62 NE6       30.06R
PONTIAC        PTCLDY    67  49  52 N5        30.07R
PORT HOPE        N/A     61  52  72 CALM      30.05F
PORT HURON     CLEAR     59  52  77 CALM      30.09R
TRI CITIES       N/A     70  52  52 CALM      30.06F
YPSILANTI      CLOUDY    72  50  45 NW7       30.07R
$$
MIZ043>046-050>051-056>058-064>065-071>073-077>080-250200-
SOUTHWEST LOWER MICHIGAN

CITY           SKY/WX    TMP DP  RH WIND       PRES   REMARKS
BATTLE CREEK   CLEAR     70  51  51 NE3       30.07F
BENTON HARBOR  CLEAR     61  50  67 CALM      30.09S
BIG RAPIDS     CLEAR     66  49  54 N6        30.05F
COLDWATER      PTCLDY    68  55  61 CALM      30.07F
HOLLAND        CLEAR     63  47  55 W5        30.09F
GRAND RAPIDS   PTCLDY    68  50  52 W7        30.07F
KALAMAZOO      CLEAR     66  51  58 NW8       30.08S
MARSHALL       CLEAR     65  52  62 CALM      30.06F
MUSKEGON       PTCLDY    65  44  46 NW5       30.08F
$$
MIZ016>042-250200-
NORTHERN LOWER MICHIGAN

CITY           SKY/WX    TMP DP  RH WIND       PRES   REMARKS
ALPENA         CLEAR     63  52  67 CALM      30.04F
BEAVER ISLAND  CLEAR     60  52  74 SW6       30.03F
BELLAIRE       CLEAR     59  53  80 CALM      30.04F
CADILLAC       CLEAR     62  51  66 W5        30.06S
CHARLEVOIX     CLEAR     63  50  61 CALM      30.07F
FRANKFORT      CLEAR     62  51  65 CALM      30.05S
GAYLORD        CLEAR     62  47  57 NW5       30.06F
GRAYLING       CLEAR     62  52  70 CALM      30.06F
HARBOR SPRINGS CLEAR     62  51  68 W3        30.04F
HOUGHTON LAKE  CLEAR     63  54  72 CALM      30.05F
MANISTEE       CLEAR     64  45  48 CALM      30.07S
OSCODA         CLEAR     65  51  59 SE3       30.04F
PELLSTON       CLEAR     60  51  72 CALM      30.04F
TRAVERSE CITY  PTCLDY    66  48  52 E3        30.03F
$$
MIZ007>008-015-250200-
EASTERN UPPER MICHIGAN

CITY           SKY/WX    TMP DP  RH WIND       PRES   REMARKS
KINROSS        CLEAR     63  55  77 CALM      30.03F
MACKINAC ISLAN CLEAR     62  53  72 SW9       30.03F
NEWBERRY       CLEAR     61  49  64 S3        30.01F
S. S. MARIE    CLEAR     59  50  72 SW6       30.02F
$$
MIZ004>006-011>014-085-250200-
CENTRAL UPPER MICHIGAN

CITY           SKY/WX    TMP DP  RH WIND       PRES   REMARKS
MANISTIQUE     CLEAR     60  52  76 SW7       30.02F
ESCANABA       CLEAR     64  52  63 S8        30.00F
MENOMINEE      CLEAR     66  48  52 S8        30.00F
SAWYER-GWINN   CLEAR     68  52  56 SE5       30.00F
$$
MIZ001>003-009>011-084-250200-
WESTERN UPPER MICHIGAN

CITY           SKY/WX    TMP DP  RH WIND       PRES   REMARKS
IRON MOUNTAIN  PTCLDY    70  53  54 S6        29.98F
HOUGHTON       CLEAR     68  50  52 W3        29.97F
COPPER HARBOR    N/A     67  48  50 VRB5      29.96F
$$

ABBREVIATIONS USED IN REMARKS
   TC - TEMPERATURE IN CELSIUS
  WCI - WIND CHILL INDEX
   HX - HEAT INDEX
  VSB - VISIBILITY



USA.gov is the U.S. government's official web portal to all federal, state and local government web resources and services.